Wind_Speed
9 9 6 3 2 2 1 4 1 7 4 3 8 3 5 7 3 4 18 27 31 32 27 24 24 26 26 26 25 23 21 19 17 15 14 13 11 10 10 10 9 9 9 9 9 9 8 7 8
10 7 3 2 2 0 3 2 6 2 7 14 11 8 5 4 5 19 26 34 33 32 26 26 25 27 27 25 23 21 19 18 16 15 14 13 11 10 10 9 9 9 8 8 8 7 8 8 7
9 3 1 2 1 3 3 3 11 13 13 6 6 7 4 4 14 25 28 33 33 31 27 27 27 26 25 24 21 19 18 17 15 14 13 12 10 10 10 9 10 9 8 8 7 8 8 7 7
5 1 1 2 4 3 3 7 15 13 7 4 12 9 7 4 20 20 35 32 33 30 27 27 26 25 24 22 20 18 17 16 14 13 12 11 10 9 9 11 10 8 7 8 8 8 8 7 6
4 1 2 2 3 2 4 11 12 6 5 9 6 7 9 12 13 31 32 29 32 29 27 27 25 23 22 20 18 17 15 14 13 12 11 10 9 9 9 11 9 10 10 10 10 10 9 9 7
3 0 3 1 2 2 2 12 9 6 8 10 15 15 7 7 23 31 28 27 29 27 26 25 25 22 20 19 16 15 14 13 12 11 10 9 9 9 9 9 10 10 11 11 11 11 10 9 8
3 2 1 2 4 2 4 11 6 9 11 8 15 8 10 17 30 30 28 27 25 25 26 25 25 22 20 17 15 13 12 11 11 10 11 10 9 9 9 8 8 9 9 10 9 10 11 9 9
2 2 3 2 3 0 8 9 8 9 5 16 13 7 10 24 32 28 29 26 23 25 29 28 26 23 20 17 14 12 11 11 11 11 10 9 8 9 8 7 7 8 9 8 8 8 9 8 8
1 2 2 3 4 2 13 7 7 6 17 5 5 12 20 31 30 28 28 25 24 25 27 27 27 24 20 17 15 13 12 11 11 10 9 8 8 7 7 6 6 6 6 6 5 7 8 8 5
3 2 5 4 5 4 13 12 14 7 17 7 10 17 31 33 30 30 30 29 26 26 28 28 27 24 21 18 16 15 13 13 11 10 8 7 6 5 4 3 3 4 3 2 1 3 6 6 6
7 4 2 4 8 5 12 11 12 12 12 13 21 29 34 34 31 29 29 29 30 29 28 28 27 25 22 20 18 16 15 14 13 11 8 6 4 3 3 2 2 2 2 2 1 3 4 5 6
5 13 9 3 2 3 13 11 10 13 4 14 22 34 38 34 33 32 31 30 30 31 29 28 27 25 23 21 19 17 16 15 14 12 8 5 5 4 2 2 2 0 1 1 2 0 3 4 6
11 5 4 12 12 8 12 16 10 15 3 15 25 33 33 33 32 29 29 30 32 32 30 28 27 25 23 21 20 19 17 15 14 13 9 6 6 5 2 1 3 1 2 2 4 1 3 1 3
6 13 11 9 12 7 12 10 8 11 15 20 30 34 32 31 32 29 29 32 34 32 30 28 26 25 23 22 20 19 18 16 15 13 9 8 6 5 3 3 2 2 1 2 4 5 3 1 1
12 9 7 12 11 6 10 8 13 13 18 24 26 32 30 30 28 31 34 35 34 32 29 28 26 25 24 22 21 20 19 17 16 13 10 8 7 4 2 4 4 3 4 3 2 4 3 1 1
4 5 7 6 12 9 17 12 16 22 26 26 27 28 30 30 31 29 29 34 34 32 32 28 27 26 25 24 22 21 20 18 17 15 12 10 10 8 6 5 4 6 6 7 5 5 7 4 6
2 7 9 4 15 7 15 13 14 29 26 27 30 29 30 29 30 30 30 33 34 33 32 30 29 28 26 24 23 21 20 21 20 17 13 15 12 11 9 6 5 6 5 5 5 5 6 5 7
8 8 5 9 6 11 16 17 5 29 29 30 32 30 30 32 35 32 31 31 34 34 31 28 28 29 27 26 25 24 24 24 22 19 17 17 14 11 12 9 8 6 6 7 6 6 5 5 6
9 7 13 9 6 6 13 16 13 23 27 27 30 32 32 35 30 29 30 30 31 35 33 29 28 29 30 31 31 29 30 27 24 21 17 17 14 12 11 9 11 8 9 8 7 7 8 7 9
17 17 17 9 6 4 7 11 10 17 27 32 34 34 35 29 30 31 32 32 35 38 37 34 31 31 31 33 33 34 30 28 26 23 21 18 15 14 11 12 10 9 9 9 10 8 8 7 6
23 23 18 8 4 5 8 12 6 13 19 24 29 31 28 34 35 33 34 38 37 39 40 38 35 34 32 32 32 34 33 31 29 28 27 25 20 18 15 13 13 13 11 11 11 12 8 7 5
23 20 21 17 9 10 4 13 8 13 18 21 28 31 34 34 33 32 35 36 41 42 39 39 38 36 34 33 36 35 34 32 29 27 27 26 22 21 18 16 16 15 15 13 11 11 10 7 6
17 14 17 19 14 12 15 9 16 8 15 22 27 34 36 38 37 37 38 44 45 44 42 41 39 39 36 37 38 37 36 33 29 25 24 23 25 26 25 22 19 17 17 14 12 11 9 8 7
11 10 8 3 9 16 22 14 16 12 19 18 25 33 34 36 38 38 38 38 42 42 42 43 44 42 41 40 40 40 38 37 35 31 27 24 23 23 23 23 22 20 19 16 14 13 12 10 9
20 17 8 10 11 14 14 13 19 9 17 19 21 33 37 39 39 40 38 37 42 44 47 47 47 46 45 44 43 42 40 38 37 33 29 27 25 24 25 25 24 21 19 16 15 16 14 12 10
28 23 9 15 16 14 7 15 13 17 24 22 26 29 32 33 38 41 44 46 50 49 48 49 49 47 47 46 47 44 43 41 37 33 33 31 28 25 25 24 23 22 20 20 18 17 16 14 13
19 25 23 12 1 5 12 15 12 11 17 24 24 25 26 32 37 41 44 49 53 53 51 50 49 46 47 46 45 47 46 44 41 35 31 33 29 27 27 26 24 24 23 22 20 19 19 18 15
14 19 10 13 14 15 8 10 14 18 20 19 20 25 28 31 33 37 41 45 51 54 53 52 49 49 45 46 44 44 45 46 43 39 35 32 32 29 30 30 27 26 25 24 23 22 21 21 19
11 20 13 12 12 10 9 11 7 16 19 22 23 31 32 31 33 36 39 44 48 49 49 53 54 52 50 47 46 44 45 46 46 44 39 35 31 32 33 34 34 31 29 27 27 26 25 25 23
24 19 26 12 12 15 8 8 2 12 11 15 22 27 28 27 30 29 32 36 37 46 48 52 52 54 54 50 47 46 44 43 45 46 43 39 36 34 34 35 37 36 34 30 30 29 29 29 27
Wind_Direction
147 143 137 154 200 213 296 85 70 133 115 70 135 151 130 44 52 113 153 150 147 147 140 137 140 141 142 138 136 131 130 130 130 129 125 116 112 107 101 104 112 108 105 101 109 115 121 108 112
146 146 157 162 247 70 79 102 123 144 121 115 95 98 76 79 80 138 146 150 149 149 142 138 142 140 138 136 134 134 133 130 130 127 123 120 110 97 95 96 99 101 101 104 106 114 117 111 107
152 160 147 193 341 8 20 81 116 120 143 141 112 87 86 100 128 141 152 153 153 150 145 143 144 143 140 137 135 136 133 130 127 123 121 115 104 101 103 98 95 88 86 95 100 100 108 120 116
168 237 216 257 9 75 30 146 136 132 124 105 127 95 81 121 140 153 154 153 154 153 149 149 149 146 141 139 138 138 132 127 128 122 115 113 106 102 99 94 90 82 90 90 89 88 92 100 106
182 246 253 247 14 30 5 159 158 140 115 140 144 119 112 121 157 150 153 153 157 155 155 154 155 151 144 142 142 134 134 135 127 120 119 117 111 106 98 100 94 91 95 90 84 80 79 89 91
210 139 239 43 25 345 62 149 144 121 126 122 119 120 110 138 154 152 152 155 159 157 156 159 160 157 152 146 143 140 137 132 128 125 127 119 111 105 97 93 96 96 94 84 80 75 68 67 69
257 227 50 3 343 1 135 147 159 137 137 129 136 114 132 146 156 155 157 157 159 161 160 164 165 164 159 154 152 149 141 138 131 129 126 116 111 104 103 100 98 95 94 92 85 72 59 59 68
277 287 354 344 346 314 144 137 144 148 106 141 139 159 158 161 160 158 160 161 162 166 170 171 171 172 168 164 165 160 154 149 141 130 124 117 108 100 97 99 103 105 103 97 83 67 65 64 61
163 294 264 227 202 193 158 132 133 138 144 165 175 153 158 156 159 158 161 167 169 172 175 177 180 181 179 175 175 169 166 161 155 138 129 120 114 111 106 96 99 118 116 101 88 78 76 65 57
202 233 223 185 225 220 173 160 154 152 159 142 105 134 150 158 163 165 169 172 175 177 179 181 184 188 187 185 184 179 176 172 167 163 150 135 127 125 118 103 112 116 117 84 52 70 66 69 63
184 230 242 219 218 194 178 177 163 148 185 187 164 154 159 164 169 173 175 179 179 178 182 183 185 188 189 191 190 187 184 181 177 175 171 173 148 178 193 175 135 125 120 32 6 59 48 54 78
211 241 246 278 134 209 190 178 181 181 152 197 175 166 164 171 176 178 180 183 184 183 184 184 186 190 193 195 195 192 191 188 189 187 184 181 183 162 140 143 176 225 332 34 64 131 23 48 89
236 238 220 259 280 255 193 191 180 195 108 162 162 166 171 176 180 184 184 187 187 187 188 188 190 192 196 198 198 195 195 195 196 197 202 191 187 196 200 191 188 215 301 318 11 336 299 1 101
212 225 263 266 267 197 188 193 198 180 139 149 164 171 176 183 184 185 189 191 192 191 193 194 196 197 200 200 198 197 199 199 200 200 203 199 189 199 238 236 214 269 238 289 342 354 353 23 303
251 259 261 236 213 204 188 199 217 169 157 159 177 174 181 189 191 195 193 196 196 197 197 199 199 200 201 201 201 201 201 206 202 195 198 202 199 208 258 246 244 265 275 258 313 347 319 332 274
227 212 226 158 192 188 177 248 211 175 176 172 177 184 186 193 198 201 201 202 203 203 204 202 203 205 204 204 203 203 207 207 199 194 206 220 227 236 253 267 275 292 280 273 293 337 349 320 337
239 227 216 211 192 156 199 255 205 187 186 175 183 190 192 195 202 205 206 205 206 207 207 206 208 209 206 204 204 208 208 203 201 211 228 238 237 240 245 259 280 299 286 269 301 303 340 319 309
215 222 230 231 171 190 207 241 197 191 192 186 188 192 197 197 205 205 207 208 209 209 208 209 213 213 210 208 207 210 208 206 209 221 228 232 234 239 243 243 266 278 266 277 282 289 314 313 306
219 236 239 237 238 223 226 245 218 196 202 197 192 194 200 205 203 206 209 209 210 211 211 212 214 213 211 210 209 209 210 212 219 225 224 229 230 238 228 246 260 273 273 285 278 294 301 312 319
225 234 242 257 260 279 251 259 227 197 207 201 196 197 204 202 200 204 208 208 212 215 215 215 216 215 213 214 212 214 216 222 227 226 223 224 229 236 244 249 262 269 279 282 280 285 294 300 325
220 223 219 232 337 240 255 255 209 214 214 208 212 211 207 202 201 205 206 211 213 217 218 215 212 213 214 216 214 216 220 226 229 230 230 231 233 242 256 248 248 255 270 277 278 270 284 284 298
222 219 237 244 258 250 229 265 213 208 206 208 210 209 211 210 207 206 210 212 216 219 218 219 216 216 216 216 215 215 219 225 231 236 237 236 237 241 249 245 241 251 262 275 284 258 268 274 288
227 207 221 239 247 263 236 250 248 207 213 216 212 214 212 212 208 208 209 216 216 219 222 222 222 220 220 219 220 222 225 232 237 240 241 238 243 246 252 244 237 247 257 268 270 264 268 269 273
189 173 193 210 241 239 239 233 249 210 216 216 217 221 217 214 213 214 216 216 220 223 223 226 226 226 225 225 225 227 230 233 236 236 237 238 242 243 234 234 233 248 250 256 262 258 259 258 258
196 181 186 218 219 238 220 229 240 232 218 218 210 218 218 214 214 216 216 216 222 223 227 226 228 228 228 229 230 232 233 235 239 239 240 239 238 238 227 229 236 243 242 247 254 249 249 252 253
201 199 205 214 233 244 195 237 237 223 235 232 233 227 224 217 215 217 218 221 230 230 230 231 231 227 228 231 231 233 235 236 237 238 239 239 237 241 229 225 231 239 243 244 247 244 240 241 245
196 211 216 256 151 262 223 247 264 239 224 217 221 226 220 216 217 220 221 223 228 233 234 231 232 231 229 230 233 235 236 236 237 236 236 239 240 240 229 228 239 236 240 241 240 240 236 237 241
186 180 185 215 232 238 219 247 234 198 213 212 215 214 223 223 220 224 223 221 225 231 235 238 235 235 232 230 231 235 238 238 237 237 236 235 237 236 233 231 235 231 236 236 235 236 234 233 235
181 189 206 202 221 227 247 245 208 219 213 213 216 214 217 220 224 224 224 226 226 227 230 236 238 236 234 233 233 234 239 241 239 239 238 235 235 235 234 232 233 234 233 234 236 236 235 233 233
203 196 197 204 187 225 259 252 263 228 221 228 226 225 229 228 228 229 229 226 220 223 223 233 235 238 235 233 233 233 234 239 241 239 240 238 235 235 235 234 232 233 234 235 236 238 237 233 231
Height
1515 1517 1519 1521 1526 1519 1513 1511 1507 1510 1510 1513 1514 1515 1518 1523 1524 1533 1534 1537 1542 1545 1549 1552 1555 1558 1560 1562 1565 1567 1569 1570 1572 1573 1573 1574 1574 1574 1574 1574 1575 1575 1575 1575 1575 1575 1577 1578 1578
1515 1516 1518 1519 1520 1523 1515 1509 1510 1509 1513 1515 1517 1519 1521 1526 1527 1530 1535 1539 1544 1547 1550 1554 1557 1560 1563 1565 1567 1569 1571 1572 1574 1575 1575 1576 1576 1576 1576 1576 1576 1576 1576 1576 1577 1577 1579 1580 1580
1515 1515 1517 1515 1513 1518 1513 1507 1509 1512 1514 1514 1517 1520 1523 1528 1529 1532 1536 1540 1545 1548 1552 1556 1559 1563 1565 1567 1569 1572 1573 1574 1575 1576 1577 1577 1578 1578 1578 1578 1578 1578 1578 1578 1578 1579 1580 1581 1581
1514 1516 1518 1513 1511 1506 1507 1508 1510 1512 1515 1515 1517 1522 1527 1529 1531 1533 1537 1541 1546 1550 1554 1557 1561 1565 1567 1569 1571 1573 1574 1576 1577 1578 1578 1579 1579 1579 1580 1580 1581 1580 1580 1580 1580 1580 1581 1582 1582
1515 1516 1512 1510 1508 1505 1504 1506 1510 1510 1513 1516 1518 1522 1527 1530 1532 1535 1539 1544 1547 1551 1555 1559 1563 1566 1568 1570 1573 1575 1577 1578 1579 1579 1580 1581 1581 1581 1581 1581 1581 1582 1582 1582 1582 1582 1583 1583 1583
1516 1516 1514 1508 1507 1503 1503 1508 1509 1511 1516 1519 1520 1522 1528 1531 1533 1537 1542 1546 1550 1553 1557 1560 1564 1567 1570 1572 1574 1576 1578 1579 1580 1581 1582 1582 1583 1583 1583 1583 1583 1583 1584 1584 1584 1585 1585 1584 1585
1513 1512 1513 1508 1507 1503 1502 1507 1509 1512 1516 1519 1520 1523 1530 1533 1535 1539 1543 1548 1551 1555 1558 1561 1564 1568 1570 1573 1575 1578 1579 1580 1581 1583 1583 1584 1584 1584 1584 1585 1585 1585 1586 1586 1587 1587 1587 1586 1586
1512 1511 1507 1506 1506 1504 1503 1506 1509 1512 1515 1519 1520 1523 1528 1530 1535 1539 1544 1549 1552 1555 1558 1561 1564 1568 1571 1574 1577 1578 1580 1582 1583 1584 1585 1586 1586 1586 1586 1586 1587 1587 1587 1588 1589 1589 1589 1589 1589
1512 1511 1510 1505 1506 1500 1502 1503 1510 1513 1514 1518 1520 1520 1524 1529 1536 1540 1544 1549 1552 1555 1558 1561 1564 1568 1571 1574 1577 1579 1581 1583 1584 1585 1586 1587 1587 1588 1588 1588 1588 1588 1590 1590 1590 1590 1591 1590 1589
1511 1511 1501 1499 1499 1498 1500 1501 1507 1512 1515 1518 1519 1522 1524 1530 1535 1539 1542 1546 1550 1553 1556 1560 1564 1568 1571 1574 1577 1579 1581 1583 1584 1586 1587 1588 1588 1588 1589 1589 1590 1590 1591 1590 1590 1591 1591 1591 1591
1508 1503 1498 1497 1497 1498 1499 1501 1504 1508 1513 1514 1515 1519 1525 1530 1534 1539 1542 1546 1549 1552 1556 1559 1563 1567 1570 1573 1576 1579 1581 1583 1585 1586 1587 1588 1589 1589 1589 1590 1591 1591 1591 1591 1590 1591 1591 1592 1592
1505 1499 1497 1495 1496 1496 1498 1500 1502 1505 1508 1511 1516 1518 1522 1529 1532 1536 1540 1545 1548 1551 1555 1558 1562 1566 1569 1572 1575 1578 1580 1582 1584 1586 1587 1588 1589 1590 1589 1590 1591 1591 1591 1592 1590 1591 1590 1591 1592
1501 1497 1496 1495 1494 1494 1497 1498 1500 1505 1507 1509 1514 1520 1524 1529 1532 1537 1540 1544 1547 1549 1553 1557 1561 1564 1568 1571 1573 1576 1579 1581 1583 1585 1586 1588 1589 1590 1590 1590 1591 1591 1591 1591 1591 1590 1590 1590 1592
1493 1496 1495 1493 1491 1491 1493 1498 1502 1505 1506 1511 1514 1518 1524 1528 1530 1535 1538 1541 1544 1548 1552 1556 1559 1563 1566 1569 1572 1576 1578 1581 1582 1584 1586 1587 1589 1589 1590 1590 1591 1591 1591 1591 1590 1590 1590 1591 1592
1491 1493 1492 1488 1489 1489 1493 1499 1497 1503 1505 1509 1517 1516 1522 1526 1531 1532 1534 1538 1542 1546 1551 1554 1558 1561 1564 1568 1571 1574 1577 1579 1581 1584 1585 1587 1588 1589 1589 1590 1591 1591 1590 1590 1590 1590 1590 1591 1592
1488 1489 1491 1481 1484 1486 1489 1489 1492 1499 1500 1506 1513 1517 1518 1523 1527 1531 1534 1537 1541 1545 1548 1552 1556 1559 1562 1566 1570 1573 1575 1578 1580 1582 1584 1586 1587 1588 1589 1589 1590 1590 1590 1589 1589 1590 1590 1590 1591
1488 1485 1487 1482 1480 1482 1485 1482 1484 1492 1498 1502 1507 1512 1516 1520 1524 1527 1531 1534 1538 1542 1546 1549 1552 1556 1560 1564 1568 1571 1573 1576 1578 1580 1582 1584 1585 1587 1588 1589 1589 1589 1589 1589 1590 1590 1590 1591 1591
1492 1491 1484 1482 1476 1478 1482 1479 1483 1487 1491 1494 1500 1506 1511 1513 1515 1521 1527 1531 1535 1539 1543 1547 1550 1554 1558 1562 1566 1568 1571 1573 1576 1578 1579 1581 1583 1585 1586 1587 1588 1588 1588 1588 1589 1590 1590 1590 1591
1485 1486 1482 1476 1474 1475 1476 1474 1477 1483 1487 1491 1495 1500 1504 1505 1513 1520 1524 1528 1532 1535 1539 1542 1545 1549 1554 1557 1560 1564 1566 1570 1573 1575 1577 1579 1581 1583 1584 1585 1586 1587 1587 1587 1587 1588 1589 1589 1589
1485 1485 1482 1478 1476 1477 1472 1472 1472 1477 1477 1482 1486 1493 1496 1505 1509 1512 1517 1522 1525 1529 1532 1536 1540 1545 1549 1552 1557 1560 1564 1567 1570 1573 1575 1577 1578 1580 1582 1583 1585 1586 1586 1586 1587 1588 1588 1588 1588
1479 1480 1478 1480 1477 1474 1474 1473 1474 1473 1478 1482 1485 1489 1495 1495 1499 1505 1510 1514 1519 1522 1525 1529 1533 1538 1543 1548 1553 1556 1560 1562 1565 1568 1570 1573 1575 1578 1580 1581 1583 1584 1584 1585 1586 1586 1587 1587 1587
1475 1473 1477 1481 1486 1489 1472 1480 1472 1466 1472 1474 1477 1481 1484 1490 1494 1500 1504 1508 1511 1514 1520 1525 1529 1533 1538 1543 1547 1550 1553 1556 1560 1564 1567 1569 1572 1574 1577 1578 1580 1581 1582 1583 1583 1584 1585 1586 1586
1467 1468 1474 1476 1480 1481 1474 1481 1457 1463 1467 1465 1468 1470 1476 1479 1484 1490 1494 1498 1502 1508 1513 1519 1525 1529 1534 1538 1542 1546 1549 1552 1558 1560 1562 1565 1567 1570 1572 1575 1577 1578 1580 1580 1581 1582 1584 1584 1585
1462 1468 1474 1478 1476 1485 1467 1474 1453 1457 1451 1453 1458 1463 1468 1473 1477 1482 1486 1491 1496 1503 1508 1513 1517 1523 1528 1531 1536 1539 1543 1547 1551 1554 1557 1559 1561 1563 1567 1570 1573 1575 1577 1578 1579 1580 1581 1583 1583
1458 1465 1484 1494 1487 1470 1454 1471 1449 1439 1440 1439 1445 1451 1455 1461 1469 1474 1480 1484 1487 1493 1497 1503 1508 1514 1520 1525 1529 1533 1538 1542 1545 1550 1553 1556 1557 1558 1561 1565 1569 1571 1574 1575 1576 1577 1579 1580 1581
1448 1450 1457 1481 1468 1463 1461 1454 1436 1430 1435 1437 1440 1442 1447 1455 1460 1464 1469 1473 1477 1482 1488 1493 1498 1505 1511 1516 1521 1526 1531 1535 1539 1544 1547 1550 1552 1555 1558 1561 1564 1567 1570 1571 1573 1575 1576 1576 1578
1443 1445 1439 1454 1466 1465 1443 1432 1428 1426 1424 1428 1430 1435 1440 1443 1449 1453 1457 1463 1468 1473 1477 1483 1488 1495 1501 1507 1514 1518 1523 1528 1531 1536 1540 1545 1548 1551 1553 1556 1559 1562 1565 1567 1568 1570 1572 1573 1575
1428 1436 1460 1453 1471 1471 1442 1443 1423 1418 1418 1418 1422 1427 1429 1433 1440 1444 1447 1452 1457 1462 1468 1474 1480 1485 1491 1498 1505 1509 1514 1519 1524 1529 1533 1537 1541 1545 1548 1552 1554 1557 1559 1562 1563 1565 1567 1568 1570
1429 1430 1432 1435 1439 1447 1449 1423 1407 1408 1407 1409 1410 1414 1419 1424 1427 1432 1437 1441 1446 1453 1458 1462 1469 1476 1483 1489 1495 1501 1505 1510 1515 1520 1525 1530 1535 1538 1541 1545 1548 1551 1553 1556 1558 1559 1562 1564 1566
1407 1413 1419 1433 1448 1437 1429 1419 1399 1400 1402 1404 1404 1408 1414 1418 1421 1425 1429 1433 1439 1442 1448 1451 1458 1464 1471 1479 1485 1490 1496 1501 1505 1510 1515 1521 1526 1531 1534 1537 1541 1544 1547 1550 1552 1555 1556 1558 1560